• In Österreich
  • Länderverzeichnis
  • Für 7 Tage
  • Wassertemperatur
  • Satellitenkarten
  • Wetterkarte
  • News
  • Widgets
  • user-avatar
    Anmelden

    Stündliche Wetter Ondjiwa

    Heute, 16 Juli, Montag

    Zeit Temperatur Niederschläge Wind Luftdruck Luftfeuchtigkeit
    00:00 +18°C° 0 mm 2 m/S 669 mmHg 32%
    01:00 +19°C° 0 mm 2 m/S 669 mmHg 31%
    02:00 +18°C° 0 mm 2 m/S 669 mmHg 33%
    03:00 +17°C° 0 mm 2 m/S 669 mmHg 36%
    04:00 +16°C° 0 mm 2 m/S 669 mmHg 38%
    05:00 +15°C° 0 mm 2 m/S 669 mmHg 40%
    06:00 +15°C° 0 mm 2 m/S 669 mmHg 43%
    07:00 +14°C° 0 mm 2 m/S 669 mmHg 45%
    08:00 +17°C° 0 mm 4 m/S 670 mmHg 39%
    09:00 +21°C° 0 mm 5 m/S 671 mmHg 32%
    10:00 +24°C° 0 mm 6 m/S 672 mmHg 25%
    11:00 +27°C° 0 mm 6 m/S 672 mmHg 23%
    12:00 +29°C° 0 mm 5 m/S 671 mmHg 20%
    13:00 +32°C° 0 mm 5 m/S 671 mmHg 17%
    14:00 +32°C° 0 mm 5 m/S 671 mmHg 17%
    15:00 +32°C° 0 mm 4 m/S 670 mmHg 16%
    16:00 +32°C° 0 mm 4 m/S 670 mmHg 16%
    17:00 +28°C° 0 mm 3 m/S 670 mmHg 19%
    18:00 +25°C° 0 mm 3 m/S 669 mmHg 23%
    19:00 +22°C° 0 mm 3 m/S 669 mmHg 26%
    20:00 +21°C° 0 mm 3 m/S 669 mmHg 28%
    21:00 +21°C° 0 mm 4 m/S 670 mmHg 30%
    22:00 +20°C° 0 mm 4 m/S 670 mmHg 31%
    23:00 +20°C° 0 mm 4 m/S 670 mmHg 34%

    Morgen, 17 Juli, Dienstag

    Zeit Temperatur Niederschläge Wind Luftdruck Luftfeuchtigkeit
    00:00 +19°C° 0 mm 4 m/S 670 mmHg 36%
    01:00 +19°C° 0 mm 5 m/S 670 mmHg 39%
    02:00 +18°C° 0 mm 4 m/S 670 mmHg 41%
    03:00 +18°C° 0 mm 4 m/S 670 mmHg 44%
    04:00 +17°C° 0 mm 4 m/S 670 mmHg 46%
    05:00 +15°C° 0 mm 4 m/S 670 mmHg 49%
    06:00 +15°C° 0 mm 4 m/S 671 mmHg 52%
    07:00 +14°C° 0 mm 3 m/S 671 mmHg 55%
    08:00 +18°C° 0 mm 4 m/S 672 mmHg 49%
    09:00 +20°C° 0 mm 5 m/S 672 mmHg 42%
    10:00 +23°C° 0 mm 6 m/S 673 mmHg 36%
    11:00 +24°C° 0 mm 6 m/S 673 mmHg 32%
    12:00 +27°C° 0 mm 5 m/S 673 mmHg 28%
    13:00 +29°C° 0 mm 5 m/S 672 mmHg 24%
    14:00 +29°C° 0 mm 5 m/S 672 mmHg 23%
    15:00 +29°C° 0 mm 4 m/S 671 mmHg 22%
    16:00 +29°C° 0 mm 4 m/S 671 mmHg 21%
    17:00 +27°C° 0 mm 3 m/S 670 mmHg 25%
    18:00 +24°C° 0 mm 3 m/S 670 mmHg 29%
    19:00 +21°C° 0 mm 3 m/S 670 mmHg 33%
    20:00 +20°C° 0 mm 3 m/S 670 mmHg 35%
    21:00 +19°C° 0 mm 3 m/S 671 mmHg 36%
    22:00 +19°C° 0 mm 4 m/S 671 mmHg 38%
    23:00 +18°C° 0 mm 4 m/S 671 mmHg 39%

    übermorgen, 18 Juli, Mittwoch

    Zeit Temperatur Niederschläge Wind Luftdruck Luftfeuchtigkeit
    00:00 +17°C° 0 mm 5 m/S 671 mmHg 40%
    01:00 +17°C° 0 mm 5 m/S 671 mmHg 41%
    02:00 +16°C° 0 mm 5 m/S 671 mmHg 43%
    03:00 +16°C° 0 mm 5 m/S 671 mmHg 45%
    04:00 +15°C° 0 mm 5 m/S 670 mmHg 47%
    05:00 +15°C° 0 mm 5 m/S 671 mmHg 48%
    06:00 +14°C° 0 mm 5 m/S 671 mmHg 49%
    07:00 +14°C° 0 mm 4 m/S 672 mmHg 50%
    08:00 +17°C° 0 mm 5 m/S 672 mmHg 44%
    09:00 +20°C° 0 mm 5 m/S 673 mmHg 37%
    10:00 +23°C° 0 mm 6 m/S 674 mmHg 31%
    11:00 +25°C° 0 mm 5 m/S 673 mmHg 27%
    12:00 +27°C° 0 mm 5 m/S 673 mmHg 24%
    13:00 +28°C° 0 mm 5 m/S 672 mmHg 21%
    14:00 +29°C° 0 mm 4 m/S 672 mmHg 20%
    15:00 +29°C° 0 mm 4 m/S 671 mmHg 18%
    16:00 +29°C° 0 mm 3 m/S 670 mmHg 17%
    17:00 +26°C° 0 mm 3 m/S 670 mmHg 21%
    18:00 +24°C° 0 mm 3 m/S 670 mmHg 24%
    19:00 +20°C° 0 mm 3 m/S 670 mmHg 28%
    20:00 +19°C° 0 mm 3 m/S 670 mmHg 31%
    21:00 +18°C° 0 mm 3 m/S 671 mmHg 34%
    22:00 +17°C° 0 mm 3 m/S 671 mmHg 37%
    23:00 +17°C° 0 mm 3 m/S 671 mmHg 39%

    19 Juli, Donnerstag

    Zeit Temperatur Niederschläge Wind Luftdruck Luftfeuchtigkeit
    00:00 +15°C° 0 mm 4 m/S 670 mmHg 41%
    01:00 +15°C° 0 mm 4 m/S 670 mmHg 43%
    02:00 +14°C° 0 mm 4 m/S 670 mmHg 46%
    03:00 +14°C° 0 mm 4 m/S 670 mmHg 48%
    04:00 +13°C° 0 mm 4 m/S 670 mmHg 51%
    05:00 +13°C° 0 mm 4 m/S 670 mmHg 52%
    06:00 +12°C° 0 mm 4 m/S 671 mmHg 53%
    07:00 +12°C° 0 mm 3 m/S 671 mmHg 55%
    08:00 +15°C° 0 mm 4 m/S 672 mmHg 46%
    09:00 +19°C° 0 mm 5 m/S 672 mmHg 37%
    10:00 +22°C° 0 mm 6 m/S 673 mmHg 29%
    11:00 +25°C° 0 mm 5 m/S 673 mmHg 25%
    12:00 +26°C° 0 mm 5 m/S 672 mmHg 22%
    13:00 +28°C° 0 mm 4 m/S 671 mmHg 19%
    14:00 +28°C° 0 mm 4 m/S 671 mmHg 18%
    15:00 +28°C° 0 mm 3 m/S 670 mmHg 17%
    16:00 +28°C° 0 mm 3 m/S 670 mmHg 16%
    17:00 +26°C° 0 mm 3 m/S 670 mmHg 20%
    18:00 +22°C° 0 mm 3 m/S 670 mmHg 24%
    19:00 +20°C° 0 mm 2 m/S 669 mmHg 28%
    20:00 +19°C° 0 mm 2 m/S 670 mmHg 31%
    21:00 +18°C° 0 mm 3 m/S 670 mmHg 34%
    22:00 +17°C° 0 mm 3 m/S 670 mmHg 37%
    23:00 +16°C° 0 mm 3 m/S 670 mmHg 39%

    20 Juli, Freitag

    Zeit Temperatur Niederschläge Wind Luftdruck Luftfeuchtigkeit
    00:00 +14°C° 0 mm 3 m/S 669 mmHg 42%
    01:00 +14°C° 0 mm 3 m/S 669 mmHg 44%
    02:00 +13°C° 0 mm 3 m/S 669 mmHg 47%
    03:00 +13°C° 0 mm 3 m/S 669 mmHg 49%
    04:00 +12°C° 0 mm 3 m/S 669 mmHg 51%
    05:00 +12°C° 0 mm 3 m/S 669 mmHg 52%
    06:00 +11°C° 0 mm 3 m/S 670 mmHg 53%
    07:00 +11°C° 0 mm 3 m/S 670 mmHg 54%
    08:00 +15°C° 0 mm 4 m/S 671 mmHg 45%
    09:00 +19°C° 0 mm 5 m/S 671 mmHg 36%
    10:00 +23°C° 0 mm 6 m/S 672 mmHg 26%
    11:00 +25°C° 0 mm 5 m/S 672 mmHg 24%
    12:00 +27°C° 0 mm 4 m/S 671 mmHg 21%
    13:00 +28°C° 0 mm 4 m/S 671 mmHg 18%
    14:00 +29°C° 0 mm 3 m/S 670 mmHg 17%
    15:00 +29°C° 0 mm 3 m/S 670 mmHg 16%
    16:00 +29°C° 0 mm 3 m/S 669 mmHg 16%
    17:00 +26°C° 0 mm 3 m/S 669 mmHg 20%
    18:00 +24°C° 0 mm 3 m/S 669 mmHg 24%
    19:00 +20°C° 0 mm 2 m/S 669 mmHg 28%
    20:00 +19°C° 0 mm 3 m/S 669 mmHg 30%
    21:00 +18°C° 0 mm 3 m/S 669 mmHg 33%
    22:00 +17°C° 0 mm 3 m/S 669 mmHg 36%
    23:00 +16°C° 0 mm 3 m/S 669 mmHg 38%

    21 Juli, Samstag

    Zeit Temperatur Niederschläge Wind Luftdruck Luftfeuchtigkeit
    00:00 +16°C° 0 mm 3 m/S 669 mmHg 40%
    01:00 +14°C° 0 mm 3 m/S 668 mmHg 42%
    02:00 +14°C° 0 mm 3 m/S 668 mmHg 43%
    03:00 +13°C° 0 mm 3 m/S 668 mmHg 45%
    04:00 +13°C° 0 mm 3 m/S 668 mmHg 46%
    05:00 +12°C° 0 mm 3 m/S 669 mmHg 47%
    06:00 +12°C° 0 mm 3 m/S 669 mmHg 48%
    07:00 +12°C° 0 mm 3 m/S 670 mmHg 49%
    08:00 +15°C° 0 mm 4 m/S 670 mmHg 41%
    09:00 +20°C° 0 mm 4 m/S 671 mmHg 33%
    10:00 +25°C° 0 mm 5 m/S 672 mmHg 24%
    11:00 +26°C° 0 mm 4 m/S 672 mmHg 22%
    12:00 +28°C° 0 mm 4 m/S 671 mmHg 19%
    13:00 +30°C° 0 mm 3 m/S 671 mmHg 16%
    14:00 +30°C° 0 mm 2 m/S 670 mmHg 15%
    15:00 +30°C° 0 mm 2 m/S 670 mmHg 14%
    16:00 +30°C° 0 mm 1 m/S 669 mmHg 13%
    17:00 +28°C° 0 mm 1 m/S 669 mmHg 16%
    18:00 +25°C° 0 mm 1 m/S 669 mmHg 19%
    19:00 +21°C° 0 mm 2 m/S 669 mmHg 22%
    20:00 +20°C° 0 mm 2 m/S 669 mmHg 24%
    21:00 +19°C° 0 mm 2 m/S 669 mmHg 25%
    22:00 +18°C° 0 mm 2 m/S 670 mmHg 27%
    23:00 +18°C° 0 mm 2 m/S 670 mmHg 29%
    Mehr zeigen